Weather in Black Rock

Trinidad and Tobago     11°12′11″N   60°46′41″W
temp.,
°C
wind,
m/s
gust,
m/s
humid.,
%
clouds,
%
prec.,
mm/h
press.,
hPa
HPBL,
m
1 august, sun
sun123:00+28e78805 0.1 1017870
02:00+27e788217 0.4 1015761
05:00+27e888119 0.4 1016773
08:00+27e788016 1.1 1017813
11:00+28ese88807 0.6 1017819
14:00+28ese777918 1.0 1015814
17:00+28ese677816 0.4 1015789
20:00+28e777912 0.4 1017805
2 august, mon
mon223:00+28e778015 0.6 1018790
02:00+27e788190 1.4 1016772
05:00+27ese778062 0.9 1016794
08:00+27ese787998 1.0 1018837
11:00+28ese7878100 0.6 1017871
14:00+27se7778100 1.2 1016792
17:00+27se557698 0.6 1015705
20:00+27ese5578100 1.3 1017560
3 august, tue
tue323:00+27ese5580100 4.1 1018390
02:00+27ese457241 7.9 1016421
05:00+27ese447226 0.4 1016598
08:00+27ese447340 3.4 1018455
11:00+27ese556988 0.9 1018769
14:00+27ese4569100 1.3 1016820
17:00+26se3377100 1.3 1016484
20:00+26se227397 1.4 1017462
4 august, wed
wed423:00+27e34745 0.0 1018556
02:00+27e447577 0.0 1016668
05:00+27e457583 0.0 1016750
08:00+27e457515 0.3 1017784
11:00+27e557611 1.1 1018707
14:00+27e44744 2.9 1016778
17:00+28ene557427 0.1 1015865
20:00+28ene56690 0.2 1017912
5 august, thu
thu523:00+27e55712 0.0 1018910
02:00+27e557716 0.1 1016717
05:00+27e557010 0.6 1017914
08:00+27e55749 0.6 1018817
11:00+27e447538 0.4 1018768
14:00+27ese337449 0.6 1016798
17:00+28ene44663 0.1 1016748
20:00+27ene45738 0.1 1017755